Avoca, PA
on Monday, December 24, 2012

Monday
Previous Day Next Day
Daily Summary
 ActualAverageRecord
Temperature
Mean Temperature °F 28°F  
Max Temperature 36°F 35°F 62°F (1933)
Min Temperature 24°F 21°F -9°F (1989)
Degree Days
Heating Degree Days 35 37  
Month to date heating degree days 626 801  
Since 1 July heating degree days 1853 2114  
Cooling Degree Days 0 0  
Month to date cooling degree days 0 0  
Year to date cooling degree days 864 580  
Moisture
Dew Point 21°F   
Average Humidity 66    
Maximum Humidity 85    
Minimum Humidity 47    
Precipitation
Precipitation 0.02 in 0.08 in 0.92 in (1910)
Month to date precipitation 3.07 2.15  
Year to date precipitation 37.24 37.73  
Wind
Wind Speed 4 mph   
Max Wind Speed 9 mph   
Max Gust Speed 13 mph   
Visibility 8 miles   
Events Snow   

Key: T is trace of precipitation, MM is missing value
Source: NWS Daily Summary
Time(EST)TemperatureDew PointHumidity Pressure Visibility Wind DirectionWind SpeedGust SpeedPrecipitationEvents Conditions
12:54 AM 32.0°F 19.0°F 59% 29.96 in 10.0 miles WSW 8.1 mph - N/A   Overcast
1:54 AM 30.9°F 19.9°F 64% 29.98 in 10.0 miles SW 3.5 mph - N/A   Overcast
2:54 AM 30.0°F 19.0°F 64% 29.99 in 10.0 miles SSW 3.5 mph - N/A   Overcast
3:54 AM 28.9°F 19.0°F 67% 29.99 in 10.0 miles SW 5.8 mph - N/A   Overcast
4:54 AM 28.0°F 19.9°F 72% 30.00 in 10.0 miles SW 5.8 mph - N/A   Overcast
5:54 AM 28.0°F 19.0°F 69% 30.01 in 10.0 miles SW 3.5 mph - N/A   Unknown
6:54 AM 25.0°F 19.0°F 78% 30.06 in 10.0 miles Calm Calm - N/A   Unknown
7:54 AM 24.1°F 19.9°F 84% 30.06 in 10.0 miles Calm Calm - N/A   Clear
8:54 AM 28.9°F 19.0°F 67% 30.06 in 10.0 miles NE 8.1 mph - N/A   Clear
9:54 AM 30.0°F 17.1°F 59% 30.07 in 10.0 miles NE 5.8 mph - N/A   Clear
10:54 AM 30.9°F 18.0°F 59% 30.05 in 10.0 miles NNE 4.6 mph - N/A   Clear
11:54 AM 32.0°F 18.0°F 56% 30.05 in 10.0 miles Variable 3.5 mph - N/A   Clear
12:54 PM 34.0°F 18.0°F 52% 30.00 in 10.0 miles NNE 5.8 mph - N/A   Clear
1:54 PM 35.1°F 18.0°F 50% 29.99 in 10.0 miles Calm Calm - N/A   Clear
2:54 PM 36.0°F 19.0°F 50% 29.99 in 10.0 miles NNW 5.8 mph - N/A   Clear
3:54 PM 35.1°F 18.0°F 50% 29.99 in 10.0 miles Calm Calm - N/A   Clear
4:54 PM 34.0°F 19.9°F 56% 29.96 in 10.0 miles SSE 4.6 mph - N/A   Clear
5:54 PM 33.1°F 19.9°F 59% 29.95 in 10.0 miles Calm Calm - N/A   Scattered Clouds
6:54 PM 33.1°F 21.0°F 61% 29.95 in 10.0 miles ESE 3.5 mph - N/A   Overcast
7:38 PM 32.0°F 23.0°F 69% 29.93 in 2.5 miles Calm Calm - 0.00 in Snow Light Snow
7:54 PM 30.9°F 26.1°F 82% 29.96 in 1.5 miles Calm Calm - 0.00 in Snow Light Snow
8:43 PM 30.2°F 26.6°F 86% 29.90 in 2.0 miles NNE 5.8 mph - 0.01 in Snow Light Snow
8:54 PM 30.0°F 27.0°F 88% 29.93 in 2.0 miles NNE 6.9 mph - 0.01 in Snow Light Snow
9:09 PM 30.2°F 26.6°F 86% 29.91 in 3.0 miles NNE 4.6 mph - 0.01 in Snow Light Snow
9:23 PM 30.2°F 26.6°F 86% 29.90 in 4.0 miles NNE 3.5 mph - 0.01 in Snow Light Snow
9:54 PM 30.9°F 26.1°F 82% 29.92 in 6.0 miles NE 4.6 mph - 0.01 in   Haze
10:54 PM 30.9°F 26.1°F 82% 29.90 in 6.0 miles ENE 4.6 mph - 0.00 in Snow Light Snow
11:54 PM 32.0°F 27.0°F 82% 29.89 in 3.0 miles NE 4.6 mph - 0.00 in Snow Light Snow
Astronomy
Sunrise:07:26 AM (EST) Moon Rise:02:05 PM (EST)
Sunset:04:38 PM (EST) Moon Set:04:02 AM (EST)
Moon Phase
Dec. 24 Dec. 28 Jan. 04 Jan. 11 Jan. 18

Copyright © 2014 The Weather Underground, Inc.